Location: Center Berlin
(42.6609°N, 73.3687°W)
Time: 21:38:25
(UTC+00:00)

Meteor PRIRODA - Pass Details

Date: 10 September 2024
Orbit: 422 x 434 km, 97.5° (Epoch: 13 October)

Event Time Altitude Azimuth Distance (km) Brightness Sun altitude
Rises 22:29:06 0° 94° (E) 2,414 6.4 6.9°
Enters shadow 23:35:05 -54° 166° (SSE) 10,890 10.3 -5.2°
Maximum altitude 00:03:42 69° 76° (ENE) 470 3.3 -10.3°
